Other Surface Observations
Issued by NWS

Current Version | Previous Version | Text Only | Print | Product List | Glossary On
Versions: 1 2 3 4 5 6 7 8 9 10 11 12 13 14 15 16 17 18 19 20 21 22 23 24 25 26 27 28 29 30 31 32 33 34 35 36 37 38 39 40 41 42 43 44 45 46 47 48 49 50
228
SXUS52 KTAE 241918
OSOTAE
OSOTAE
North Florida/South Alabama/Southwest Georgia Weather Roundup
National Weather Service Tallahassee Florida
300 PM EDT TUE MAY 24 2016

Note: "fair" indicates few or no clouds below 12,000 feet with no
significant weather and/or obstructions to visibility.

!FLZ017-115-028-034-025-242000
...North Florida...

CITY           SKY/WX    TMP DP  RH WIND       PRES   REMARKS
TALLAHASSEE    MOSUNNY   89  51  27 VRB3      30.12F
APALACHICOLA   SUNNY     83  63  50 S10       30.13S
PERRY          MOSUNNY   87  58  37 SE5       30.12F
CROSS CITY       N/A     91  58  32 N3        30.10F HX  90
JACKSONVILLE   PTSUNNY   84  61  45 E10       30.13S
$$

!FLZ112-006-005-002-011-242000
...Florida Panhandle...

CITY           SKY/WX    TMP DP  RH WIND       PRES   REMARKS
MARIANNA       SUNNY     87  52  29 SE3       30.11F
BONIFAY          N/A     86  52  30 VRB3      30.12
PANAMA CITY NW FAIR      88  52  29 S3        30.10F
TYNDALL AFB    SUNNY     84  63  49 W12       30.11F
TYND DRONE APT FAIR      82  66  58 W9        30.11F
DE FUNIAK SPR  FAIR      86  53  32 E3        30.13F
EGLIN AFB      MOSUNNY   85  58  39 SW10      30.12S
DESTIN         SUNNY     85  64  49 VRB6      30.12F
HURLBURT       NOT AVBL
CRESTVIEW      SUNNY     89  53  29 MISG      30.13F
PENSACOLA      SUNNY     85  52  32 SE12      30.12F
$$

!ALZ063-066-242000
...South Alabama...

CITY           SKY/WX    TMP DP  RH WIND       PRES   REMARKS
DOTHAN         SUNNY     86  47  25 E3        30.16F
OZARK CAIRNS   MOSUNNY   86  53  33 E6        30.12F
FT RUCKER HELI NOT AVBL
RUCKER HELI 3  FAIR      87  52  29 SE9       30.14F
RUCKER HELI 2  NOT AVBL
FLORALA APT    NOT AVBL
ANDALUSIA      SUNNY     91  53  27 VRB5      30.13F
TROY           MOSUNNY   86  57  37 SW6       30.14S
EUFALA         FAIR      88  49  25 VRB3      30.12F
MOBILE         MOSUNNY   84  62  47 SE10G18   30.12F
$$

!GAZ120>161-242000
...Southwest and South Central Georgia...

CITY           SKY/WX    TMP DP  RH WIND       PRES   REMARKS
THOMASVILLE    FAIR      86  52  30 SE5       30.14S
BAINBRIDGE     SUNNY     86  50  28 E8        30.14S
MOODY AFB      CLOUDY    86  55  34 VRB3      30.12F
VALDOSTA       SUNNY     86  56  35 VRB3      30.12F
MOULTRIE       CLOUDY    84  52  32 CALM      30.14S
BLAKELY        SUNNY     88  50  27 CALM      30.14S
ALBANY         CLOUDY    87  44  22 CALM      30.14F
TIFTON         FAIR      85  50  30 NE7       30.13F
FITZGERALD     FAIR      87  45  23 CALM      30.16F
CORDELE        FAIR      87  49  26 CALM      30.14F
AMERICUS       FAIR      82  45  26 SE3       30.16S
HOMERVILLE     FAIR      86  54  32 CALM      30.13F
$$

!GMZ750-755-770-775-242000
...Coastal and Buoy Obs...

STATION/POSITION TIME  TEMP    WIND        PRES    VSBY  WAVE
                       AIR SEA DIR/SP/G                  HT/PER
                 (UTC) (F)     (DEG/KT/KT) (MB)    (MI)  (FT/S)
KEATON BEACH     1900   79     230/ 10/ 11 1019.7F
CEDAR KEY        1900   80     260/  7/  9 1020.0F
C TOWER          1900   76     110/  5/  6 1020.9F
APALACHICOLA BUO 1850   78 81   40/  4/  6 1020.2F         0
PANAMA CITY BUOY 1850   77 81   90/  8/ 10 1020.8F         1
MOBILE BUOY      1900   78 78  100/ 10/ 12 1019.8S
ORANGE BCH AL BU 1850   77 79  100/  8/ 10 1019.9F         1/ 3
$$




USA.gov is the U.S. government's official web portal to all federal, state and local government web resources and services.